Volver al catálogo

STARLINK-33626

ActivoComunicacionesVLEO
NORAD 63369·PAYLOAD·🇺🇸 United States

Lanzado Mar 26, 2025 desde Vandenberg Space Force Base

Loading…

Próximos Pases (próximas 24 horas)

TLE

ActualizadoSource: CelesTrak SupGP

Época: Sep 14, 2026, 22:53 UTC

1 63369C 25063G   26257.95395833  .00031161  00000+0  92056-3 0  2573
2 63369  53.1575 247.5663 0001262  92.4486  70.7231 15.34377830    14

Sigue STARLINK-33626 en tiempo real con AllMySat

Download on the App Store